Location: Oberwangen
(47.4286°N, 8.9679°E)
Time: 15:04:51
(UTC+00:00)

DNEPR-1 R/B - Pass Details

Date: 20 June 2021
Orbit: 588 x 1333 km, 64.6° (Epoch: 02 August)

Event Time Altitude Azimuth Distance (km) Brightness Sun altitude
Rises 20:33:23 0° 322° (NW) 2,843 9.4 -9.2°
Reaches altitude 10° 20:35:37 10° 324° (NW) 1,924 7.8 -9.5°
Maximum altitude 20:39:51 81° 52° (NE) 612 3.5 -9.9°
Enters shadow 20:43:38 14° 139° (SE) 1,745 5.2 -10.3°
